Temperature
3 4 4 4 5 5 5 5 5 5 5 5 5 6 6 6 6 6 6 6 6 6 5 5 5 6 6 6 6 6 6 6 6 5 5 6 6 6 6 6 6 6 6
3 3 3 4 4 4 4 4 4 4 4 4 5 5 5 5 5 5 5 5 5 5 5 5 5 5 5 5 5 5 5 5 5 4 4 4 5 5 5 5 5 5 5
2 3 3 3 3 4 4 4 4 4 4 4 4 4 4 4 4 4 5 4 5 5 4 4 4 4 4 4 4 4 4 4 4 4 4 3 4 4 4 5 5 4 4
2 2 2 2 3 3 3 3 3 3 3 3 3 3 3 3 3 4 4 4 4 4 4 4 4 4 3 4 4 4 4 4 4 4 3 3 3 3 3 3 4 4 4
1 1 2 2 2 2 2 2 2 2 2 2 2 2 3 3 3 3 3 3 3 3 3 3 3 3 3 3 3 3 3 3 3 3 3 2 2 2 2 2 3 3 3
0 1 1 1 1 1 2 2 1 2 2 1 2 2 2 2 2 2 2 2 2 2 2 2 2 2 2 2 2 2 2 2 2 2 2 2 2 2 1 1 2 2 3
-0 0 0 1 1 1 1 1 1 1 1 1 1 1 1 1 1 1 1 1 1 2 2 1 1 1 1 2 2 1 2 2 2 1 1 1 1 1 1 1 1 1 2
-1 -0 -0 0 0 0 0 0 0 0 0 0 0 0 -0 -0 0 0 0 0 1 1 1 1 1 1 1 1 1 1 1 1 1 1 1 1 1 1 1 1 0 0 1
-1 -1 -1 -0 -0 -0 -0 -0 -0 -0 -0 -0 -0 -1 -1 -1 -1 -1 -1 -0 -0 -0 -0 -0 -0 0 0 0 0 0 0 0 0 0 0 0 0 0 0 0 -0 -0 -1
-1 -1 -1 -1 -1 -1 -1 -1 -1 -1 -1 -1 -1 -1 -2 -2 -2 -2 -1 -1 -1 -1 -1 -1 -1 -1 -1 -1 -1 -0 -0 -0 -0 -0 -0 -0 -0 -0 -0 -0 -0 -1 -1
-2 -2 -2 -2 -1 -1 -1 -1 -1 -1 -1 -2 -2 -2 -2 -2 -2 -2 -2 -2 -2 -2 -2 -1 -2 -1 -1 -1 -1 -1 -1 -1 -1 -1 -1 -1 -1 -1 -1 -1 -1 -1 -1
-2 -2 -2 -2 -2 -2 -2 -2 -2 -2 -2 -2 -2 -3 -3 -3 -3 -3 -3 -3 -3 -2 -2 -2 -2 -2 -2 -2 -2 -2 -2 -2 -2 -2 -2 -1 -1 -1 -1 -1 -1 -1 -1
-3 -3 -3 -3 -3 -3 -3 -3 -3 -3 -3 -3 -3 -3 -3 -3 -3 -3 -3 -3 -3 -3 -3 -3 -3 -3 -3 -3 -3 -3 -3 -2 -2 -2 -2 -2 -2 -2 -2 -2 -2 -2 -2
-3 -4 -4 -3 -3 -3 -3 -3 -3 -3 -4 -4 -4 -4 -4 -4 -4 -4 -4 -4 -4 -4 -4 -4 -4 -4 -4 -4 -3 -3 -3 -3 -3 -3 -3 -3 -3 -3 -3 -3 -2 -3 -3
-4 -4 -4 -4 -4 -4 -4 -4 -4 -4 -4 -4 -5 -5 -5 -5 -5 -5 -5 -5 -5 -5 -5 -5 -4 -4 -4 -4 -4 -4 -4 -4 -4 -4 -4 -4 -4 -4 -3 -3 -3 -3 -3
-4 -4 -4 -5 -5 -5 -5 -5 -5 -5 -5 -5 -5 -5 -6 -6 -6 -6 -6 -6 -6 -5 -5 -5 -5 -5 -5 -5 -5 -5 -5 -5 -5 -5 -4 -4 -4 -4 -4 -4 -4 -4 -4
-5 -5 -5 -5 -5 -5 -5 -5 -5 -6 -6 -6 -6 -6 -6 -6 -6 -6 -6 -6 -6 -6 -6 -6 -6 -6 -6 -6 -6 -6 -6 -6 -5 -5 -5 -5 -5 -5 -5 -5 -5 -5 -5
-5 -5 -5 -5 -6 -6 -6 -6 -6 -6 -7 -7 -7 -7 -7 -7 -7 -7 -7 -7 -7 -7 -7 -7 -7 -7 -6 -6 -7 -7 -6 -6 -6 -6 -6 -6 -6 -5 -6 -5 -5 -5 -5
-6 -6 -6 -6 -6 -6 -6 -7 -7 -7 -7 -7 -7 -7 -8 -8 -8 -8 -8 -8 -8 -8 -8 -8 -7 -7 -7 -7 -7 -7 -7 -7 -7 -7 -7 -7 -6 -6 -6 -6 -6 -6 -6
-6 -6 -6 -6 -7 -7 -7 -7 -8 -8 -8 -8 -8 -8 -9 -8 -8 -9 -9 -9 -9 -8 -8 -8 -8 -8 -8 -8 -8 -8 -8 -8 -8 -7 -7 -7 -7 -7 -7 -7 -7 -7 -6
-7 -7 -7 -7 -7 -8 -8 -8 -8 -8 -9 -9 -9 -9 -9 -9 -9 -9 -9 -9 -9 -9 -9 -9 -9 -9 -9 -9 -9 -9 -9 -9 -9 -8 -8 -8 -8 -8 -8 -8 -8 -8 -7
-7 -8 -8 -8 -8 -9 -9 -9 -9 -9 -10 -10 -10 -10 -10 -10 -10 -10 -10 -10 -10 -10 -10 -10 -9 -9 -9 -9 -9 -9 -9 -9 -9 -9 -9 -9 -9 -9 -8 -8 -8 -8 -8
-8 -9 -9 -9 -9 -10 -10 -10 -10 -10 -10 -10 -10 -10 -10 -10 -10 -11 -11 -10 -10 -10 -10 -10 -10 -10 -10 -10 -10 -10 -10 -10 -10 -10 -10 -10 -9 -9 -9 -9 -9 -9 -9
-9 -10 -10 -10 -10 -10 -11 -11 -11 -11 -11 -11 -11 -11 -11 -11 -11 -11 -11 -11 -11 -11 -11 -11 -11 -11 -11 -11 -10 -10 -10 -11 -11 -11 -11 -11 -10 -10 -10 -10 -10 -10 -10
-10 -10 -11 -11 -11 -11 -11 -11 -12 -12 -11 -11 -12 -12 -11 -11 -11 -11 -11 -11 -11 -12 -12 -12 -12 -11 -11 -11 -11 -11 -11 -11 -11 -11 -11 -11 -11 -11 -11 -11 -11 -11 -11
-11 -11 -11 -11 -12 -12 -12 -12 -12 -12 -12 -12 -12 -12 -12 -12 -12 -12 -12 -12 -12 -12 -12 -12 -12 -12 -12 -12 -12 -12 -12 -12 -12 -12 -12 -12 -12 -12 -12 -11 -11 -11 -11
Wind_Speed
2 0 1 2 2 3 3 3 3 3 3 2 1 1 1 1 2 3 4 4 3 3 3 2 3 2 1 1 1 1 1 1 1 1 1 2 1 1 1 2 2 3 3
1 1 1 1 2 2 2 2 2 1 2 2 1 0 1 1 1 3 4 4 3 3 2 2 2 2 1 1 1 1 1 0 1 1 0 1 2 1 1 1 1 2 3
5 3 1 1 1 1 1 1 0 1 2 2 2 2 2 2 1 2 2 4 4 3 3 2 1 2 1 0 1 1 2 2 1 1 2 1 2 2 1 1 1 1 2
4 3 2 1 0 1 1 1 1 1 2 2 2 2 1 0 1 1 1 3 3 3 3 2 1 1 0 0 1 1 1 2 2 1 1 1 2 1 2 2 1 2 2
4 4 3 3 1 0 1 1 1 2 2 2 2 2 1 1 1 2 2 2 3 3 4 3 2 1 1 1 1 1 1 2 2 2 1 1 1 1 2 3 3 2 3
3 2 2 2 1 1 1 1 1 1 1 1 1 1 1 1 2 2 2 2 2 3 4 4 2 2 2 2 1 2 2 2 2 2 2 2 2 2 3 3 4 4 3
2 2 1 1 1 1 0 1 1 1 0 1 0 0 0 0 1 1 2 2 2 2 3 4 3 2 2 2 2 2 2 2 3 3 3 3 3 2 3 3 3 3 3
2 1 1 1 1 1 0 1 1 1 1 1 0 0 0 0 1 1 1 2 2 2 3 3 3 4 3 3 2 2 3 2 3 4 3 3 3 3 3 3 3 3 3
1 1 1 0 0 1 1 1 2 1 1 1 0 0 1 1 2 2 1 2 2 2 3 3 3 4 3 3 2 2 3 2 3 4 4 3 3 3 3 3 4 4 4
0 1 1 1 1 1 1 1 1 1 1 0 0 1 1 1 1 1 2 2 3 2 2 3 3 3 3 3 2 2 2 2 3 3 4 4 3 3 3 3 3 3 5
1 0 1 1 2 2 1 1 1 1 1 0 0 1 1 1 1 1 2 2 3 3 3 3 3 4 3 3 3 3 3 3 3 3 4 5 4 3 3 3 3 3 3
1 1 0 1 2 2 2 1 1 1 1 1 1 1 1 2 2 2 3 3 3 3 3 3 3 4 4 3 3 3 3 3 4 4 4 4 4 4 3 3 4 4 4
1 0 1 1 2 2 2 2 1 1 1 1 0 1 1 2 2 3 3 3 3 3 3 3 3 4 4 4 3 3 4 4 4 4 4 4 4 4 4 4 4 4 4
2 1 2 2 2 2 2 2 2 1 1 1 1 1 2 2 3 3 3 3 3 3 3 3 4 4 4 4 4 4 4 5 5 4 4 5 5 5 5 4 4 4 4
3 3 3 2 2 2 2 2 2 1 1 1 1 2 2 3 3 3 3 3 4 4 4 4 4 4 4 4 4 4 5 5 4 4 5 5 7 7 6 5 5 5 4
4 3 3 2 2 2 2 2 2 2 1 1 1 2 3 3 3 3 3 4 4 4 4 4 4 5 4 7 7 6 5 5 5 5 5 5 6 8 8 9 8 7 6
4 4 3 3 3 3 2 2 2 2 1 1 2 2 3 3 3 4 4 4 4 4 4 5 5 5 6 8 8 8 5 4 5 5 5 5 6 7 5 7 8 8 9
4 3 3 3 2 1 1 1 1 1 2 2 2 3 3 4 4 4 4 4 4 4 4 5 5 6 7 9 9 9 5 4 5 5 6 6 6 6 6 5 5 6 7
3 3 2 2 1 1 1 1 1 1 2 2 3 3 3 4 4 4 5 4 4 5 5 5 5 6 7 9 9 8 4 4 5 5 6 6 6 9 8 5 6 6 6
1 1 1 1 1 1 0 1 2 2 3 3 4 4 4 4 5 5 5 4 4 5 5 6 5 6 7 9 9 8 4 4 5 4 5 7 7 8 8 5 5 6 6
1 1 1 1 1 1 0 1 2 3 4 4 4 4 4 5 5 5 4 4 4 4 5 6 6 6 7 9 10 9 4 4 5 5 4 5 9 9 9 7 5 7 6
1 1 1 2 2 1 1 2 3 4 3 3 3 4 4 4 4 4 4 4 4 4 5 5 6 5 6 7 9 10 9 7 5 5 4 5 9 9 9 7 7 8 6
1 1 1 2 2 1 1 3 4 3 3 3 3 4 4 4 4 4 4 4 3 3 4 4 5 5 5 6 10 10 10 10 6 5 7 8 8 8 7 8 8 6 3
1 1 1 2 3 2 2 2 3 3 2 3 4 4 4 4 4 3 4 4 4 4 4 5 5 6 5 5 5 6 7 8 7 6 7 8 7 6 6 6 5 3 3
1 1 1 2 3 3 3 3 2 2 2 3 3 4 3 4 4 4 4 5 5 6 6 5 5 6 6 8 10 8 6 5 5 4 3 3 3 3 3 3 3 2 2
1 1 2 2 3 3 3 3 2 2 2 3 3 3 3 3 3 4 5 8 8 10 10 10 8 7 10 12 12 12 11 10 8 4 3 3 3 4 4 4 4 3 3
Wind_Direction
226 114 46 26 77 72 72 69 64 48 57 65 85 78 35 29 44 38 38 40 42 50 61 57 50 47 68 61 67 111 128 92 81 58 342 336 340 355 9 3 7 360 356
219 196 96 58 87 92 81 75 64 61 57 49 55 97 117 84 64 37 34 32 35 41 52 53 50 44 45 36 70 88 141 134 118 127 128 317 313 328 331 340 344 341 345
209 208 181 165 110 100 92 94 57 75 61 59 67 62 58 38 27 18 18 14 15 22 34 33 54 53 58 253 248 190 169 186 202 152 158 181 237 295 296 276 292 314 313
207 200 189 181 196 198 119 85 77 65 66 79 79 84 89 34 310 317 334 358 4 14 16 18 30 77 82 303 296 249 226 182 194 210 237 215 178 199 285 291 278 277 276
203 203 195 187 185 162 110 107 73 62 59 78 97 99 84 28 357 5 359 354 360 1 10 15 14 0 296 263 309 284 234 208 199 196 204 214 222 208 213 260 281 281 260
200 198 195 164 143 96 83 92 89 60 54 74 89 112 117 24 15 358 353 350 346 357 1 1 3 352 330 294 275 259 220 218 228 213 196 196 200 208 212 236 259 268 266
185 184 195 189 181 141 108 104 107 68 48 100 104 88 144 211 274 307 317 327 335 337 341 352 347 336 317 308 312 291 242 220 225 226 232 228 233 224 223 229 249 260 272
184 196 217 212 211 204 185 154 182 236 227 198 231 347 21 297 297 301 296 292 288 292 326 328 331 333 328 310 292 298 270 242 234 241 242 246 248 239 233 227 232 258 264
199 226 290 281 254 251 229 207 209 231 240 224 182 349 355 333 314 317 322 306 310 329 330 326 328 326 324 315 310 292 283 268 249 248 243 247 256 250 248 235 226 228 245
216 316 320 326 314 286 267 235 215 238 247 229 262 327 319 334 342 341 322 311 316 326 322 321 321 318 319 317 307 303 308 287 276 266 248 247 258 260 258 243 239 236 234
207 254 331 344 354 359 350 357 337 336 4 9 3 3 343 353 348 324 314 316 323 321 313 308 307 306 307 315 301 300 311 287 285 280 260 253 252 249 252 251 242 242 238
175 201 308 358 4 356 351 342 345 354 341 2 18 358 359 355 338 320 319 325 321 322 314 306 297 295 296 299 292 289 298 279 277 277 271 270 263 249 246 242 245 246 239
219 252 312 334 335 334 341 341 330 321 340 14 32 1 348 336 317 311 318 322 314 316 319 310 292 289 290 286 286 278 280 272 265 266 264 268 268 261 257 247 247 250 250
254 277 295 305 316 326 332 343 327 330 345 8 348 314 306 301 298 306 316 317 312 306 306 305 297 296 293 288 290 285 283 277 268 265 264 266 263 259 252 251 249 249 248
254 264 272 283 304 319 326 337 335 342 5 9 337 306 308 309 311 312 314 316 316 312 306 305 303 302 293 285 287 281 279 277 273 271 268 268 271 271 267 260 251 246 247
257 262 270 277 282 287 297 317 324 328 350 338 311 317 319 315 313 310 312 316 314 310 308 301 298 297 294 296 294 290 278 277 275 277 278 278 276 274 276 274 269 260 250
261 262 263 260 264 267 276 275 294 325 333 318 313 318 317 314 308 309 314 311 306 302 301 299 295 290 291 297 295 292 284 277 270 273 276 277 276 281 281 281 279 271 259
269 269 266 272 279 270 284 300 314 325 318 309 307 311 313 310 312 310 304 301 297 296 295 295 292 292 295 300 298 299 289 276 271 271 271 271 274 271 277 275 276 269 260
262 258 252 259 257 250 272 311 309 310 300 293 295 298 299 301 304 301 295 293 294 292 291 290 289 291 297 300 298 301 284 278 275 273 272 273 271 278 284 273 269 273 270
323 312 323 298 245 267 258 268 277 284 281 284 288 292 291 289 288 286 287 288 287 287 293 296 292 287 289 298 301 298 281 277 281 279 276 278 286 289 288 271 261 264 269
332 347 341 288 270 263 223 283 283 274 280 289 293 294 291 285 280 283 286 288 288 291 291 292 294 288 289 297 300 296 286 277 280 280 277 282 291 293 291 288 272 275 281
334 336 328 315 318 297 252 283 285 292 296 293 293 294 293 290 290 288 290 287 281 285 288 293 300 294 292 298 300 297 292 291 277 276 277 279 288 290 292 290 289 288 289
304 317 297 311 319 308 263 272 293 306 306 302 299 299 300 298 297 290 289 289 281 279 287 289 294 300 300 298 301 299 298 295 287 278 281 285 288 290 288 290 293 291 287
289 296 285 296 305 309 304 285 298 305 301 298 301 302 304 306 304 294 284 282 274 275 280 283 288 296 300 300 300 295 295 295 291 290 288 290 289 289 290 292 291 287 278
277 246 246 266 286 304 303 301 302 303 301 301 301 306 306 303 302 298 283 282 269 266 272 273 275 286 290 292 298 300 295 289 284 296 296 295 303 294 296 296 294 292 287
246 251 263 275 287 298 300 303 302 290 287 302 308 307 306 304 303 305 308 304 298 296 289 284 283 283 286 296 298 298 297 295 294 291 286 284 281 279 283 286 286 283 274
Height
1507 1508 1509 1510 1511 1512 1514 1515 1516 1517 1519 1519 1520 1521 1522 1524 1525 1526 1526 1527 1527 1528 1528 1529 1529 1530 1530 1531 1531 1532 1533 1533 1534 1535 1535 1535 1536 1536 1536 1537 1538 1538 1538
1504 1505 1506 1507 1507 1509 1511 1513 1514 1515 1516 1517 1518 1519 1520 1521 1522 1523 1523 1524 1524 1525 1525 1525 1526 1526 1527 1528 1528 1529 1529 1530 1531 1532 1532 1532 1533 1532 1533 1534 1534 1535 1535
1500 1502 1504 1505 1506 1507 1509 1510 1511 1513 1514 1514 1515 1516 1517 1518 1519 1519 1520 1521 1521 1521 1522 1522 1523 1523 1524 1524 1525 1525 1526 1527 1528 1529 1530 1530 1528 1528 1529 1530 1531 1531 1532
1498 1499 1501 1502 1503 1505 1507 1508 1509 1510 1511 1512 1512 1513 1513 1514 1515 1516 1517 1517 1518 1518 1519 1519 1519 1520 1521 1521 1522 1522 1522 1523 1524 1525 1526 1527 1527 1527 1525 1526 1527 1528 1528
1495 1497 1499 1500 1502 1503 1504 1505 1507 1508 1508 1509 1510 1510 1511 1511 1512 1513 1513 1514 1514 1515 1515 1515 1516 1516 1517 1517 1518 1518 1519 1519 1520 1521 1521 1522 1523 1523 1523 1521 1522 1523 1524
1493 1495 1497 1498 1500 1501 1502 1502 1503 1504 1505 1506 1507 1507 1508 1508 1509 1509 1510 1510 1511 1511 1511 1512 1512 1512 1513 1513 1513 1514 1514 1515 1516 1516 1517 1518 1518 1518 1519 1518 1517 1518 1518
1491 1492 1494 1496 1497 1498 1499 1500 1500 1501 1502 1503 1503 1504 1504 1505 1505 1506 1506 1506 1506 1507 1507 1508 1508 1508 1509 1509 1509 1510 1510 1510 1511 1511 1512 1513 1514 1514 1515 1515 1514 1513 1513
1490 1491 1492 1493 1495 1496 1496 1497 1497 1498 1499 1499 1500 1501 1501 1502 1502 1502 1502 1503 1503 1503 1503 1504 1504 1504 1504 1504 1505 1505 1505 1505 1505 1506 1506 1507 1509 1509 1510 1510 1510 1509 1508
1489 1490 1491 1492 1493 1494 1494 1495 1495 1495 1496 1496 1497 1498 1498 1499 1499 1499 1499 1499 1499 1499 1500 1500 1500 1500 1500 1500 1500 1500 1500 1500 1501 1501 1501 1502 1503 1504 1504 1505 1506 1506 1504
1487 1488 1489 1490 1491 1491 1492 1492 1492 1492 1493 1493 1494 1494 1495 1495 1496 1496 1496 1496 1496 1496 1496 1495 1495 1496 1496 1496 1496 1496 1496 1496 1496 1496 1496 1497 1498 1498 1499 1499 1500 1500 1500
1486 1487 1487 1488 1488 1488 1489 1489 1489 1490 1490 1490 1491 1491 1491 1492 1492 1492 1492 1492 1492 1491 1491 1491 1491 1491 1491 1491 1491 1491 1491 1491 1492 1492 1492 1491 1492 1493 1493 1494 1494 1495 1495
1485 1486 1486 1486 1486 1486 1486 1486 1486 1486 1487 1487 1487 1488 1488 1488 1488 1488 1488 1488 1488 1487 1487 1486 1486 1487 1487 1487 1486 1486 1486 1486 1486 1486 1486 1486 1487 1487 1487 1488 1488 1488 1488
1483 1484 1484 1483 1483 1483 1483 1483 1483 1483 1484 1484 1484 1484 1484 1484 1484 1484 1484 1484 1484 1483 1483 1482 1482 1482 1482 1482 1481 1481 1481 1481 1481 1481 1481 1481 1481 1481 1481 1482 1482 1482 1483
1481 1481 1481 1481 1481 1481 1480 1480 1480 1480 1480 1480 1480 1480 1481 1481 1481 1481 1480 1480 1479 1479 1478 1478 1478 1477 1477 1477 1476 1476 1476 1475 1475 1475 1476 1476 1475 1475 1476 1476 1476 1476 1477
1479 1478 1478 1478 1478 1478 1477 1477 1477 1477 1477 1477 1477 1477 1477 1477 1477 1477 1476 1476 1475 1475 1474 1473 1473 1473 1472 1472 1471 1471 1471 1470 1470 1470 1470 1470 1470 1470 1470 1470 1470 1470 1470
1476 1476 1475 1475 1475 1474 1474 1474 1474 1474 1474 1473 1473 1473 1473 1473 1473 1473 1472 1472 1471 1470 1470 1469 1468 1468 1467 1467 1466 1466 1466 1465 1464 1464 1464 1464 1464 1464 1464 1465 1465 1465 1464
1473 1473 1472 1472 1472 1471 1471 1471 1471 1470 1470 1470 1470 1470 1470 1469 1469 1469 1468 1468 1467 1466 1465 1464 1463 1463 1463 1462 1462 1461 1460 1459 1459 1459 1458 1458 1458 1459 1458 1458 1458 1458 1458
1470 1470 1469 1469 1469 1469 1468 1468 1468 1467 1467 1467 1467 1467 1466 1466 1465 1465 1464 1464 1463 1462 1461 1460 1459 1458 1458 1457 1457 1456 1455 1454 1454 1454 1453 1453 1453 1453 1452 1452 1451 1451 1451
1468 1467 1467 1466 1466 1465 1465 1464 1464 1464 1464 1463 1463 1463 1462 1462 1461 1460 1460 1460 1459 1457 1456 1455 1454 1453 1453 1453 1452 1451 1449 1449 1448 1448 1448 1448 1448 1447 1447 1446 1445 1444 1445
1465 1464 1463 1463 1462 1462 1461 1461 1460 1460 1460 1460 1460 1459 1459 1458 1457 1457 1456 1455 1454 1453 1452 1451 1450 1449 1448 1448 1447 1446 1445 1443 1443 1443 1443 1443 1442 1442 1441 1441 1440 1439 1438
1461 1461 1460 1459 1459 1459 1458 1457 1457 1457 1457 1456 1456 1456 1455 1454 1453 1453 1452 1451 1450 1449 1447 1446 1445 1444 1443 1443 1442 1441 1440 1439 1438 1437 1437 1437 1437 1436 1436 1435 1434 1434 1433
1459 1458 1457 1457 1456 1456 1455 1454 1454 1454 1453 1453 1452 1452 1451 1450 1449 1448 1447 1447 1446 1444 1443 1442 1440 1440 1439 1438 1437 1437 1436 1435 1434 1432 1432 1432 1431 1431 1430 1429 1428 1428 1428
1456 1455 1454 1454 1454 1453 1453 1452 1451 1450 1450 1449 1449 1448 1447 1446 1446 1444 1443 1442 1441 1440 1439 1438 1436 1435 1435 1434 1433 1432 1431 1430 1429 1428 1427 1427 1426 1425 1424 1424 1423 1423 1422
1453 1452 1452 1451 1451 1450 1450 1449 1448 1447 1447 1446 1445 1444 1443 1442 1442 1441 1440 1439 1438 1437 1435 1434 1433 1431 1431 1430 1429 1428 1427 1426 1425 1424 1423 1422 1421 1420 1419 1419 1418 1417 1417
1450 1449 1449 1448 1448 1447 1447 1446 1445 1444 1443 1443 1442 1441 1440 1439 1438 1437 1436 1435 1434 1434 1432 1431 1430 1428 1426 1426 1426 1424 1423 1422 1421 1419 1418 1416 1415 1414 1414 1413 1413 1413 1412
1447 1446 1446 1446 1445 1444 1444 1443 1442 1441 1440 1439 1438 1437 1436 1435 1434 1433 1432 1431 1431 1429 1428 1427 1426 1425 1424 1422 1421 1420 1419 1418 1417 1415 1413 1412 1411 1410 1409 1409 1408 1408 1408